Bad Gastein, Austria 16 day weather forecast

Slopes altitude range 860 m - 2685m

Number of lifts: 42 Pistes: 201km

In some cases the lift and piste totals shown are for the ski domain (e.g. Three Valleys) rather than individual resort (e.g. Courchevel)

Overview

The 16 day weather forecast is fully updated 4 times every day.

    • Thu 21 FEB 2019
    • Thu 21
    • -2C 0C
    • Fri 22 FEB 2019
    • Fri 22
    • -2C -1C
    • Sat 23 FEB 2019
    • Sat 23
    • -9C -2C
    • Sun 24 FEB 2019
    • Sun 24
    • -8C 0C
    • Mon 25 FEB 2019
    • Mon 25
    • -7C 1C
    • Tue 26 FEB 2019
    • Tue 26
    • -5C 2C
    • Wed 27 FEB 2019
    • Wed 27
    • -3C 3C
    • Thu 28 FEB 2019
    • Thu 28
    • -2C 5C
    • Fri 01 MAR 2019
    • Fri 01
    • -5C 3C
    • Sat 02 MAR 2019
    • Sat 02
    • -4C 2C
    • Sun 03 MAR 2019
    • Sun 03
    • -5C -1C
    • Mon 04 MAR 2019
    • Mon 04
    • -5C 3C
    • Tue 05 MAR 2019
    • Tue 05
    • -1C 1C
    • Wed 06 MAR 2019
    • Wed 06
    • -2C 0C
    • Thu 07 MAR 2019
    • Thu 07
    • -8C -6C
    • Fri 08 MAR 2019
    • Fri 08
    • -13C -10C

Date:

Time Type 0°C level Temp Chill Snow Cloud Speed Gust Dir Press
18:00 1585m 0°C 0_7 1cm 100% 7mph 8mph 1028mB
21:00 1025m -6°C -6_8 0cm 67% 8mph 9mph 1029mB
0:00 1113m -6°C -6_8 0cm 43% 8mph 9mph 1029mB
3:00 1507m -5°C -5_9 1cm 89% 9mph 13mph 1029mB
6:00 1582m -5°C -5_9 1cm 94% 9mph 13mph 1028mB
9:00 1682m -2°C -2_12 3cm 100% 12mph 16mph 1029mB
12:00 1768m -1°C -1_13 2cm 99% 13mph 17mph 1029mB
15:00 1743m -1°C -1_13 1cm 84% 13mph 18mph 1030mB
18:00 1291m -1°C -1_11 1cm 58% 11mph 15mph 1033mB
21:00 1254m -5°C -5_10 0cm 48% 10mph 15mph 1035mB
0:00 1219m -5°C -5_10 0cm 59% 10mph 15mph 1037mB
3:00 935m -7°C -7_10 0cm 77% 10mph 14mph 1037mB
6:00 512m -9°C -9_10 0cm 52% 10mph 13mph 1038mB
9:00 1391m -9°C -9_11 0cm 0% 11mph 15mph 1037mB
12:00 1634m -2°C -2_11 0cm 0% 11mph 15mph 1036mB
15:00 1485m -2°C -2_9 0cm 0% 9mph 13mph 1035mB
18:00 571m -2°C -2_7 0cm 5% 7mph 8mph 1038mB
21:00 532m -9°C -9_6 0cm 4% 6mph 7mph 1039mB
0:00 631m -9°C -9_6 0cm 2% 6mph 8mph 1038mB
3:00 701m -9°C -9_7 0cm 0% 7mph 8mph 1037mB
6:00 760m -9°C -9_8 0cm 0% 8mph 9mph 1038mB
9:00 1809m -8°C -8_8 0cm 0% 8mph 12mph 1037mB
12:00 1989m 0°C 0_9 0cm 6% 9mph 12mph 1035mB
15:00 1980m 0°C 0_10 0cm 7% 10mph 16mph 1035mB
18:00 1151m 0°C 0_10 0cm 4% 10mph 12mph 1037mB
21:00 1105m -6°C -6_9 0cm 0% 9mph 11mph 1038mB
0:00 1041m -6°C -6_9 0cm 0% 9mph 10mph 1039mB
3:00 928m -7°C -7_7 0cm 0% 7mph 8mph 1039mB
6:00 894m -7°C -7_5 0cm 0% 5mph 6mph 1040mB
9:00 1837m -7°C -7_3 0cm 1% 3mph 4mph 1039mB
12:00 2114m 1°C 1_3 0cm 8% 3mph 4mph 1037mB
15:00 2126m 1°C 1_2 0cm 75% 2mph 3mph 1035mB
18:00 1291m 1°C 1_4 0cm 49% 4mph 5mph 1037mB
21:00 1328m -4°C -4_5 0cm 57% 5mph 6mph 1037mB
0:00 1353m -4°C -4_6 0cm 78% 6mph 7mph 1036mB
3:00 1282m -4°C -4_7 0cm 12% 7mph 8mph 1035mB
6:00 1180m -5°C -5_8 0cm 37% 8mph 9mph 1035mB
9:00 2774m -5°C -5_8 0cm 80% 8mph 12mph 1033mB
12:00 2761m 2°C 2_8 0cm 76% 8mph 11mph 1031mB
15:00 2877m 2°C 2_8 0cm 60% 8mph 12mph 1030mB
18:00 1471m 2°C 2_8 0cm 53% 8mph 9mph 1031mB
21:00 1529m -3°C -3_8 0cm 84% 8mph 9mph 1031mB
0:00 1564m -3°C -3_8 0cm 67% 8mph 9mph 1030mB
3:00 1553m -3°C -3_9 0cm 1% 9mph 10mph 1029mB
6:00 1526m -3°C -3_9 0cm 1% 9mph 10mph 1029mB
9:00 2886m -3°C -3_7 0cm 0% 7mph 11mph 1028mB
12:00 2989m 3°C 3_4 0cm 11% 4mph 5mph 1026mB
15:00 3038m 3°C 3_1 0cm 46% 1mph 2mph 1025mB
18:00 2108m 3°C 3_2 0cm 35% 2mph 3mph 1026mB
21:00 2147m -2°C -2_3 0cm 0% 3mph 4mph 1026mB
0:00 1735m -2°C -2_3 0cm 0% 3mph 4mph 1025mB
3:00 2100m -2°C -2_3 0cm 0% 3mph 4mph 1024mB
6:00 1658m -2°C -2_5 0cm 10% 5mph 6mph 1024mB
9:00 3100m -2°C -2_5 0cm 57% 5mph 7mph 1022mB
12:00 3036m 5°C 5_5 0cm 38% 5mph 6mph 1020mB
15:00 2984m 5°C 5_6 0cm 26% 6mph 6mph 1019mB
18:00 2051m 5°C 5_7 0cm 46% 7mph 8mph 1022mB
21:00 1491m -3°C -3_8 0cm 72% 8mph 9mph 1023mB
0:00 1369m -4°C -4_8 0cm 70% 8mph 8mph 1024mB
3:00 1313m -4°C -4_7 0cm 26% 7mph 8mph 1024mB
6:00 1238m -5°C -5_7 0cm 13% 7mph 7mph 1025mB
9:00 2161m -5°C -5_5 0cm 87% 5mph 7mph 1024mB
12:00 2318m 3°C 3_2 0cm 93% 2mph 2mph 1022mB
15:00 2363m 3°C 3_1 0cm 100% 1mph 2mph 1020mB
18:00 1785m 3°C 3_3 0cm 100% 3mph 4mph 1023mB
21:00 1454m -3°C -3_4 0cm 92% 4mph 4mph 1024mB
0:00 1367m -4°C -4_4 0cm 83% 4mph 4mph 1024mB
3:00 1265m -4°C -4_2 0cm 74% 2mph 2mph 1022mB
6:00 1278m -5°C -5_3 0cm 80% 3mph 4mph 1022mB
9:00 2042m -4°C -4_6 0cm 97% 6mph 8mph 1020mB
12:00 2232m 2°C 2_6 0cm 93% 6mph 7mph 1017mB
15:00 2244m 3°C 3_6 0cm 94% 6mph 6mph 1015mB
18:00 1557m 3°C 3_7 0cm 83% 7mph 7mph 1016mB
21:00 1698m -3°C -3_8 0cm 86% 8mph 9mph 1015mB
0:00 1599m -3°C -3_9 0cm 93% 9mph 13mph 1014mB
3:00 1612m -3°C -3_10 1cm 99% 10mph 13mph 1014mB
6:00 1261m -5°C -5_8 2cm 100% 8mph 11mph 1016mB
9:00 1663m -5°C -5_12 0cm 67% 12mph 34mph 1017mB
12:00 1790m -1°C -1_11 0cm 34% 11mph 23mph 1017mB
Morning 0mm 0 1133m -6°C -6_7 0cm 24% 7mph 11mph 1023mB
Afternoon 0mm 0 2238m 3°C 3_12 0cm 96% 12mph 17mph 1015mB
Morning 0mm 0 1820m -1°C -1_8 0cm 100% 8mph 13mph 1012mB
Afternoon 0.96875mm 0 1956m 1°C 1_6 8cm 100% 6mph 9mph 1010mB
Morning 1.25521mm 0.75 1865m -1°C -1_8 10cm 100% 8mph 11mph 1006mB
Afternoon 0.864583mm 0.625 1793m 0°C 0_8 7cm 96% 8mph 11mph 1006mB
Morning 0.119792mm 0.0625 930m -6°C -6_10 1cm 77% 10mph 16mph 1013mB
Afternoon 0.192708mm 0.0625 999m -6°C -6_13 2cm 99% 13mph 17mph 1017mB
Morning 0.130208mm 0.375 0m -13°C -13_11 3cm 90% 11mph 19mph 1027mB
Afternoon 0.15625mm 0.5 377m -10°C -10_16 4cm 92% 16mph 22mph 1031mB
Morning 0.0833333mm 0.1875 0m -17°C -17_6 2cm 76% 6mph 6mph 1038mB
Afternoon 0mm 0 1556m -2°C -2_5 0cm 26% 5mph 6mph 1030mB

16 day outlook at a glance

Forecast issued: 21/02/2019 17:43:04

Chat

Your comments and questions. In a resort? Let us know what it's like!


Characters left 250

For terms and conditions see Readers Comments on the Cookie and privacy policy page.